Hourly Data Report for September 08, 2018

TORONTO CITY
ONTARIO
Current Station Operator: ECCC - MSC

43°40'00.000" N
79°24'00.000" W
112.50 m
6158355
71508
XTO

Download Data

Hourly Data (September 2018)
Hourly Data Report for September 8, 2018
TIME
LST
Temp Definition
°C
Dew Point Definition
°C
Rel Hum Definition
%
Precip. Amount Definition
mm

Wind Dir Definition
10's deg

Wind Spd Definition
km/h
Visibility Definition
km
Stn Press Definition
kPa
Hmdx Definition


Wind Chill Definition


Weather Definition


00:00 17.9 7.6 51 0.0 LegendMM LegendMM   101.00     LegendNANA
01:00 17.5 6.8 50 0.0 LegendMM LegendMM   100.99     LegendNANA
02:00 17.4 6.7 50 0.0 LegendMM LegendMM   100.99     LegendNANA
03:00 16.8 7.4 54 0.0 LegendMM LegendMM   101.01     LegendNANA
04:00 15.8 7.6 58 0.0 LegendMM LegendMM   101.05     LegendNANA
05:00 15.0 7.4 60 0.0 LegendMM LegendMM   101.09     LegendNANA
06:00 14.3 6.1 58 0.0 LegendMM LegendMM   101.12     LegendNANA
07:00 13.8 3.8 51 0.0 LegendMM LegendMM   101.19     LegendNANA
08:00 13.8 4.3 53 0.0 LegendMM LegendMM   101.23     LegendNANA
09:00 14.4 2.5 45 0.0 LegendMM LegendMM   101.25     LegendNANA
10:00 15.1 2.1 41 0.0 LegendMM LegendMM   101.31     LegendNANA
11:00 14.9 1.5 40 0.0 LegendMM LegendMM   101.28     LegendNANA
12:00 15.6 0.8 37 0.0 LegendMM LegendMM   101.25     LegendNANA
13:00 16.2 2.6 40 0.0 LegendMM LegendMM   101.20     LegendNANA
14:00 16.0 3.1 42 0.0 LegendMM LegendMM   101.17     LegendNANA
15:00 16.2 3.1 41 0.0 LegendMM LegendMM   101.13     LegendNANA
16:00 16.1 4.0 44 0.0 LegendMM LegendMM   101.11     LegendNANA
17:00 16.0 3.6 44 0.0 LegendMM LegendMM   101.10     LegendNANA
18:00 15.8 4.1 46 0.0 LegendMM LegendMM   101.08     LegendNANA
19:00 15.6 4.5 47 0.0 LegendMM LegendMM   101.09     LegendNANA
20:00 15.0 5.3 52 0.0 LegendMM LegendMM   101.10     LegendNANA
21:00 15.0 5.5 53 0.0 LegendMM LegendMM   101.12     LegendNANA
22:00 14.6 5.3 54 0.0 LegendMM LegendMM   101.13     LegendNANA
23:00 14.1 4.7 53 0.0 LegendMM LegendMM   101.14     LegendNANA

Notes on Data Quality.

Legend

  • E = Estimated
  • M = Missing
  • NA = Not Available*
  • [empty] = Indicates an unobserved value
Date modified: